sat.trackr.live / text

‹ back to catalog

STARLINK-34214

NORAD 64190 · 2025-113W

PAYLOAD ACTIVE UNKNOWN

§ Identity

Operator
Country
US
Launch date
2025-05-28
Launch site
AFETR
Launch vehicle
Mass (kg)
RCS (m²)

Purposes: comms

External: N2YO · Heavens-Above · Gunter

§ Orbital elements

Epoch: 2026-05-25T02:46:16.836096Z

Period
94.11 min
Inclination
53.1607°
Eccentricity
0.0001081
Mean motion
15.30204472 rev/d
Perigee alt
474.5 km
Apogee alt
475.9 km
Semi-major
6,853.3 km
B*
3.9331e-4
RAAN
96.3200°
Arg perigee
100.4879°
Mean anomaly
259.6243°
Rev number
5,676

§ Raw data

STARLINK-342141 64190U 25113W   26145.11547264  .00011309  00000+0  39331-3 0  99952 64190  53.1607  96.3200 0001081 100.4879 259.6243 15.30204472 56766

JSON: /api/v1/satellites/64190 · /tle

For live sub-satellite position, see the globe view (requires WebGL).

§ Visibility from observer

Set your observer location to see the next 7 days of passes ≥ 10°. The values pass through the URL so the page stays shareable.

No JS? Fill the form by hand. The geolocation button needs JavaScript.